EW9034 Weather Reports


Display with metric or nautical units.
time (UTC)temp
F
wind
direction
speed
MPH
gust
MPH
rain 1hr
in
rain 24hr
in
rain mn
in
humidity
%
barometer
mb
20260905160117 54 204 2.0 6.0 0.04 0.06 0.06 94 1016.4
20260905154524 54 241 2.0 4.0 0.05 0.06 0.06 94 1016.7
20260905153120 54 241 0.0 0.0 0.06 0.06 0.06 94 1017.2
20260905151537 54 241 0.0 2.0 0.05 0.05 0.05 94 1017.4
20260905150126 53 241 1.0 8.0 0.02 0.02 0.02 94 1018.0
20260905144546 53 267 6.0 10.0 0.01 0.01 0.01 94 1018.3
20260905143035 53 285 0.0 3.0 0.00 0.00 0.00 94 1017.3
20260905141537 53 285 0.0 5.0 0.00 0.00 0.00 94 1016.8
20260905140031 53 276 2.0 6.0 0.00 0.00 0.00 94 1016.3
20260905134535 52 274 3.0 9.0 0.00 0.00 0.00 94 1016.2
20260905133030 52 246 2.0 5.0 0.00 0.00 0.00 94 1016.6
20260905131528 50 244 1.0 7.0 0.00 0.00 0.00 94 1016.4
20260905130027 49 244 0.0 7.0 0.00 0.00 0.00 93 1016.4
20260905124533 48 261 0.0 4.0 0.00 0.00 0.00 93 1015.7
20260905123021 47 271 0.0 1.0 0.00 0.00 0.00 93 1015.3
20260905121520 47 271 0.0 2.0 0.00 0.00 0.00 91 1015.1
20260905120017 48 271 0.0 3.0 0.00 0.00 0.00 91 1015.4
20260905114515 48 274 0.0 1.0 0.00 0.00 0.00 91 1014.9
20260905113011 49 274 0.0 1.0 0.00 0.00 0.00 91 1015.2
20260905111510 50 274 0.0 3.0 0.00 0.00 0.00 91 1015.3
20260905110010 50 274 1.0 3.0 0.00 0.00 0.00 91 1015.2
20260905104504 51 274 0.0 3.0 0.00 0.00 0.00 91 1014.7
20260905103009 50 274 0.0 6.0 0.00 0.00 0.00 92 1014.7
20260905101502 51 267 3.0 7.0 0.00 0.00 0.00 91 1014.2
20260905100001 51 255 1.0 3.0 0.00 0.00 0.00 91 1014.4
20260905094601 51 255 0.0 4.0 0.00 0.00 0.00 91 1014.0
20260905093100 51 254 0.0 4.0 0.00 0.00 0.00 91 1014.2
20260905091621 51 254 0.0 0.0 0.00 0.00 0.00 91 1014.4
20260905090119 52 254 0.0 0.0 0.00 0.00 0.00 90 1014.0
20260905084606 52 254 0.0 2.0 0.00 0.00 0.00 91 1013.9
20260905083055 51 254 0.0 2.0 0.00 0.00 0.00 90 1013.6
20260905081553 51 255 0.0 3.0 0.00 0.00 0.00 90 1013.8
20260905080055 50 259 1.0 3.0 0.00 0.00 0.00 88 1013.5
20260905074548 52 258 1.0 4.0 0.00 0.00 0.00 88 1013.8
20260905073052 52 257 1.0 4.0 0.00 0.00 0.00 87 1014.0
20260905071545 53 267 1.0 2.0 0.00 0.00 0.00 86 1013.9
20260905070040 54 267 0.0 3.0 0.00 0.00 0.00 84 1013.9
20260905064536 56 268 0.0 1.0 0.00 0.00 0.00 83 1013.5
20260905063032 56 268 0.0 1.0 0.00 0.00 0.00 80 1013.5
20260905061532 56 268 2.0 3.0 0.00 0.00 0.00 76 1013.9
20260905060026 56 268 1.0 7.0 0.00 0.00 0.00 76 1014.0
20260905054523 56 287 3.0 5.0 0.00 0.00 0.00 74 1013.7
20260905053021 57 291 0.0 3.0 0.00 0.00 0.00 72 1012.8
20260905051523 58 291 1.0 4.0 0.00 0.00 0.00 68 1012.3
20260905050023 59 306 0.0 0.0 0.00 0.00 0.00 64 1013.2
20260905044516 60 307 1.0 5.0 0.00 0.00 0.00 62 1012.3
20260905043022 60 306 1.0 8.0 0.00 0.00 0.00 61 1012.1
20260905041514 58 292 2.0 7.0 0.00 0.00 0.00 65 1011.9
20260905040014 57 273 1.0 7.0 0.00 0.00 0.00 65 1012.0
20260905034517 56 265 5.0 8.0 0.00 0.00 0.00 67 1012.2
20260905033020 56 261 0.0 4.0 0.00 0.00 0.00 70 1012.1
20260905031511 54 261 2.0 4.0 0.00 0.00 0.00 73 1011.8
20260905030017 55 274 2.0 4.0 0.00 0.00 0.00 66 1011.9
20260905024507 57 275 0.0 2.0 0.00 0.00 0.00 64 1011.3
20260905023006 58 275 1.0 4.0 0.00 0.00 0.00 64 1010.9
20260905021506 59 275 2.0 3.0 0.00 0.00 0.00 58 1011.0
20260905020006 62 275 2.0 6.0 0.00 0.00 0.00 53 1010.9
20260905014503 64 276 2.0 6.0 0.00 0.00 0.00 50 1010.7
20260905013001 67 281 2.0 4.0 0.00 0.00 0.00 46 1010.8
20260905011603 69 282 2.0 5.0 0.00 0.00 0.00 44 1010.6
20260905010106 71 286 1.0 7.0 0.00 0.00 0.00 43 1010.4
20260905004558 71 294 3.0 10.0 0.00 0.00 0.00 41 1010.3
20260905003057 71 309 4.0 11.0 0.00 0.00 0.00 39 1010.3
20260905001603 72 281 5.0 11.0 0.00 0.00 0.00 39 1010.1
20260905000110 72 298 5.0 14.0 0.00 0.00 0.00 40 1009.9
20260904234551 72 300 5.0 15.0 0.00 0.00 0.00 37 1009.7
20260904233109 72 275 4.0 13.0 0.00 0.00 0.00 39 1009.6
20260904231555 72 311 8.0 15.0 0.00 0.00 0.00 38 1009.4
20260904230049 72 349 6.0 15.0 0.00 0.00 0.00 41 1009.3
20260904224553 68 296 8.0 14.0 0.00 0.00 0.00 42 1009.4
20260904223058 68 305 7.0 16.0 0.00 0.00 0.00 44 1009.2
20260904221544 69 290 8.0 15.0 0.00 0.00 0.00 43 1009.0
20260904220042 70 310 12.0 20.0 0.00 0.00 0.00 40 1008.6
20260904214540 70 283 8.0 17.0 0.00 0.00 0.00 42 1008.5
20260904213041 71 259 10.0 19.0 0.00 0.00 0.00 39 1008.2
20260904211539 71 284 4.0 12.0 0.00 0.00 0.00 39 1007.9
20260904210044 71 250 8.0 13.0 0.00 0.00 0.00 40 1007.5
20260904204533 72 290 2.0 8.0 0.00 0.00 0.00 41 1007.1
20260904203032 73 333 2.0 6.0 0.00 0.00 0.00 41 1007.2
20260904201526 72 327 6.0 11.0 0.00 0.00 0.00 43 1006.8
20260904200027 72 342 5.0 9.0 0.00 0.00 0.00 42 1006.8
20260904194525 74 346 5.0 9.0 0.00 0.00 0.00 41 1006.5
20260904193023 72 355 3.0 9.0 0.00 0.00 0.00 42 1006.5
20260904191525 73 10 6.0 11.0 0.00 0.00 0.00 40 1006.1
20260904190031 70 355 5.0 9.0 0.00 0.00 0.00 43 1006.4
20260904184519 71 334 2.0 9.0 0.00 0.00 0.00 46 1006.4
20260904183024 72 339 3.0 10.0 0.00 0.00 0.00 45 1006.4
20260904181527 69 332 4.0 9.0 0.00 0.00 0.00 47 1006.4
20260904180010 67 337 5.0 9.0 0.00 0.00 0.00 49 1006.4
20260904174509 67 336 3.0 6.0 0.00 0.00 0.00 48 1006.7
20260904173017 66 325 3.0 8.0 0.00 0.00 0.00 50 1006.5
20260904171509 64 336 2.0 9.0 0.00 0.00 0.00 52 1006.5
20260904170001 64 28 10.0 15.0 0.00 0.00 0.00 50 1005.5
20260904164558 62 20 10.0 13.0 0.00 0.00 0.00 57 1005.1
20260904163055 60 29 5.0 8.0 0.00 0.00 0.00 58 1005.9
20260904161604 60 15 5.0 11.0 0.00 0.00 0.00 60 1006.2